Kozani Airport, Greece

6:21 PM EEST on September 28, 2016 (GMT +0300)
Filippos

Weather History for LGKZ - November, 2011

Change the Weather History Date:

Saturday, November 19, 2011

  Actual Average Record
Temperature  
Mean Temperature 38 °F -  
Max Temperature 51 °F - - ()
Min Temperature 26 °F - - ()
Degree Days  
Heating Degree Days 26    
Moisture  
Dew Point 26 °F    
Average Humidity 65    
Maximum Humidity 80    
Minimum Humidity 41    
Precipitation  
Precipitation 0.00 in - - ()
Sea Level Pressure  
Sea Level Pressure 30.21 in    
Wind  
Wind Speed 3 mph ()    
Max Wind Speed 7 mph    
Max Gust Speed -    
T = Trace of Precipitation, MM = Missing Value Source: Averaged Metar Reports

Daily Weather History Graph

Daily Weather History Graph

Search for Another Location

Airport or City:

Trip Planner

Search our weather history database for the weather conditions in past years. The results will help you decide how hot, cold, wet, or windy it might be!

Date:

Astronomy

Nov. 19, 2011 Rise Set
Actual Time 7:22 AM EET 5:13 PM EET
Civil Twilight 6:53 AM EET 5:42 PM EET
Nautical Twilight 6:19 AM EET 6:15 PM EET
Astronomical Twilight 5:47 AM EET 6:47 PM EET
Moon 12:21 AM EET (11/19) 1:21 PM EET (11/19)
Length of Visible Light 10h 49m
Length of Day
9h 50m
Last Quarter, 41% of the Moon is Illuminated
Nov 19
Last Quarter
Nov 25
New
Dec 2
First Quarter
Dec 10
Full
Dec 18
Last Quarter

Hourly Weather History & Observations

Time (EET) Temp. Windchill Dew Point Humidity Pressure Visibility Wind Dir Wind Speed Gust Speed Precip Events Conditions
12:20 AM 32.0 °F 28.7 °F 24.8 °F 75% 30.24 in - Variable 3.5 mph - N/A   Unknown
12:50 AM 30.2 °F - 23.0 °F 75% 30.24 in - Variable 2.3 mph - N/A   Unknown
1:20 AM 35.6 °F 31.7 °F 24.8 °F 65% 30.24 in - WNW 4.6 mph - N/A   Unknown
1:50 AM 32.0 °F 28.7 °F 23.0 °F 69% 30.24 in - Variable 3.5 mph - N/A   Unknown
2:20 AM 30.2 °F 26.7 °F 23.0 °F 75% 30.24 in - Variable 3.5 mph - N/A   Unknown
2:50 AM 28.4 °F - 23.0 °F 80% 30.24 in - Variable 1.2 mph - N/A   Unknown
3:20 AM 30.2 °F 26.7 °F 23.0 °F 75% 30.24 in - Variable 3.5 mph - N/A   Unknown
3:50 AM 30.2 °F - 23.0 °F 75% 30.24 in - Variable 2.3 mph - N/A   Unknown
4:20 AM 30.2 °F 26.7 °F 23.0 °F 75% 30.21 in - Variable 3.5 mph - N/A   Unknown
4:50 AM 30.2 °F 26.7 °F 23.0 °F 75% 30.21 in - Variable 3.5 mph - N/A   Unknown
5:20 AM 28.4 °F - 23.0 °F 80% 30.21 in - Variable 2.3 mph - N/A   Unknown
5:50 AM 28.4 °F - 23.0 °F 80% 30.21 in - Variable 1.2 mph - N/A   Unknown
6:20 AM 26.6 °F - 21.2 °F 80% 30.24 in - Variable 1.2 mph - N/A   Unknown
6:50 AM 28.4 °F 21.2 °F 21.2 °F 74% 30.24 in - NNW 6.9 mph - N/A   Unknown
7:50 AM 28.4 °F - 21.2 °F 74% 30.24 in - Calm Calm - N/A   Clear
8:50 AM 35.6 °F - 26.6 °F 70% 30.24 in - Calm Calm - N/A   Clear
9:50 AM 39.2 °F - 28.4 °F 65% 30.24 in - Calm Calm - N/A   Clear
10:50 AM 42.8 °F - 30.2 °F 61% 30.24 in - Calm Calm - N/A   Clear
11:50 AM 46.4 °F - 30.2 °F 53% 30.24 in - Calm Calm - N/A   Clear
12:50 PM 48.2 °F - 30.2 °F 50% 30.21 in - Calm Calm - N/A   Clear
1:50 PM 50.0 °F - 30.2 °F 47% 30.18 in - Calm Calm - N/A   Clear
2:20 PM 50.0 °F - 30.2 °F 47% 30.18 in - SSE 4.6 mph - N/A   Unknown
2:50 PM 50.0 °F - 30.2 °F 47% 30.18 in - Variable 3.5 mph - N/A   Unknown
3:20 PM 51.8 °F - 28.4 °F 41% 30.18 in - Variable 1.2 mph - N/A   Unknown
3:50 PM 50.0 °F - 28.4 °F 43% 30.18 in - Variable 2.3 mph - N/A   Unknown
4:20 PM 50.0 °F - 28.4 °F 43% 30.18 in - Calm Calm - N/A   Unknown
4:50 PM 48.2 °F - 28.4 °F 46% 30.18 in - Variable 1.2 mph - N/A   Unknown
5:20 PM 42.8 °F - 28.4 °F 57% 30.18 in - Calm Calm - N/A   Unknown
5:50 PM 41.0 °F 39.0 °F 28.4 °F 61% 30.18 in - Variable 3.5 mph - N/A   Unknown
6:20 PM 39.2 °F 37.0 °F 28.4 °F 65% 30.18 in - Variable 3.5 mph - N/A   Unknown
6:50 PM 37.4 °F 33.8 °F 26.6 °F 65% 30.18 in - NNW 4.6 mph - N/A   Unknown
7:20 PM 33.8 °F 30.8 °F 26.6 °F 75% 30.21 in - Variable 3.5 mph - N/A   Unknown
7:50 PM 35.6 °F 30.7 °F 26.6 °F 70% 30.21 in - North 5.8 mph - N/A   Unknown
8:20 PM 35.6 °F 31.7 °F 26.6 °F 70% 30.21 in - North 4.6 mph - N/A   Unknown
8:50 PM 33.8 °F 29.6 °F 24.8 °F 70% 30.21 in - NNW 4.6 mph - N/A   Unknown
9:20 PM 32.0 °F 26.4 °F 23.0 °F 69% 30.21 in - North 5.8 mph - N/A   Unknown
9:50 PM 33.8 °F 30.8 °F 23.0 °F 65% 30.21 in - Variable 3.5 mph - N/A   Unknown
10:20 PM 35.6 °F - 23.0 °F 60% 30.21 in - Variable 2.3 mph - N/A   Unknown
10:50 PM 32.0 °F 26.4 °F 23.0 °F 69% 30.21 in - NNW 5.8 mph - N/A   Unknown
11:20 PM 33.8 °F 28.6 °F 23.0 °F 65% 30.21 in - NNW 5.8 mph - N/A   Unknown
11:50 PM 33.8 °F 28.6 °F 24.8 °F 70% 30.21 in - NW 5.8 mph - N/A   Unknown